Weather observations for the past three days for
Milford Municipal Airport
Imperial (Metric)
Date Time (mdt) Wind (mph) Vis. (mi.) Weather Sky Cond. Temperature (ºF) Relative Humidity Wind Chill (°F) Heat Index (°F) Pressure Precipitation (in)
Air Dwpt 6 hour altimeter (in) sea level (mb) 1 hr 3 hr 6 hr
Max. Min.
08 03:52 S 8 10.00 Fair CLR 45 24.1 44% 41 30.01 1011.3
08 02:52 S 7 10.00 Fair CLR 48 26.1 42% 45 30.02 1011.4
08 01:52 SW 10 10.00 Fair CLR 53.1 21 28% 30.02 1011.1
08 00:52 W 5 10.00 Fair CLR 53.1 19 26% 30.01 1011.0
07 23:52 NW 3 10.00 Fair CLR 53.1 17.1 80.1 53.1 24% 30 1010.8
07 22:52 W 8 10.00 Fair CLR 57 17.1 21% 29.99 1010.6
07 21:52 SE 5 10.00 Fair CLR 64.9 19.9 18% 29.97 1009.9
07 20:52 E 6 10.00 Fair CLR 66.9 21 17% 29.95 1009.7
07 19:52 S 5 10.00 Fair CLR 75.9 19.9 12% 76 29.95 1009.7
07 18:52 S 6 10.00 Fair CLR 78.1 19.9 11% 77 29.95 1010.2
07 17:52 Calm 10.00 Fair CLR 80.1 21 81 71.1 11% 78 29.96 1010.3
07 16:52 S 9 10.00 Fair CLR 80.1 21.9 11% 78 29.97 1010.6
07 15:52 S 10 10.00 Fair CLR 80.1 23 12% 78 30 1011.4
07 14:52 Vrbl 7 10.00 Fair CLR 78.1 23 13% 77 30.03 1012.7
07 13:52 SE 9 10.00 Fair CLR 75.9 24.1 14% 76 30.05 1013.5
07 12:52 S 12 G 17 10.00 Fair CLR 73.9 23 15% 30.08 1014.5
07 11:52 S 12 G 24 10.00 Fair CLR 71.1 21 71.1 33.1 15% 30.11 1015.4
07 10:52 S 16 10.00 Fair CLR 66 19 16% 30.12 1016.2
07 09:52 S 20 G 24 10.00 Fair CLR 60.1 16 18% 30.14 1017.5
07 08:52 S 16 10.00 Fair CLR 52 17.1 25% 30.15 1017.9
07 07:52 S 9 10.00 Fair CLR 41 19 41% 36 30.16 1018.4
07 06:52 S 9 10.00 Fair CLR 36 18 48% 30 30.15 1018.4
07 05:52 S 8 10.00 Fair CLR 34 17.1 48 33.1 50% 28 30.15 1018.5
07 04:52 SW 5 10.00 Fair CLR 35.1 10.9 37% 32 30.16 1018.4
07 03:52 S 5 10.00 Fair CLR 37 10.9 34% 34 30.16 1018.4
07 02:52 SW 7 10.00 Fair CLR 37 10.9 34% 32 30.16 1018.8
07 01:52 SW 5 10.00 Fair CLR 39 12.9 34% 36 30.17 1018.8
07 00:52 SW 10 10.00 Fair CLR 43 10.9 27% 38 30.17 1018.6
06 23:52 Calm 10.00 Fair CLR 46.9 12 66 43 24% 30.16 1018.3
06 22:52 W 9 10.00 Fair CLR 46.9 12 24% 43 30.17 1018.9
06 21:52 Calm 10.00 Fair CLR 46.9 12 24% 30.16 1018.7
06 20:52 NE 7 10.00 Fair CLR 55 12.9 19% 30.15 1017.9
06 19:52 NE 15 10.00 Fair CLR 63 12.9 14% 30.13 1017.0
06 18:52 NE 16 G 26 10.00 Fair CLR 64.9 14 14% 30.12 1016.7
06 17:52 NE 17 G 25 10.00 Fair CLR 66 12.9 68 59 13% 30.11 1016.1
06 16:52 N 10 G 35 10.00 Fair CLR 66.9 17.1 15% 30.11 1016.0
06 15:52 N 21 G 32 10.00 Fair and Breezy CLR 66.9 19.9 17% 30.12 1015.9
06 14:52 NE 14 G 30 10.00 Fair CLR 64.9 19.9 18% 30.12 1016.5
06 13:52 N 22 G 31 10.00 Fair and Breezy CLR 64 23 21% 30.12 1016.6
06 12:52 N 18 G 31 10.00 Mostly Cloudy BKN065 62.1 28.9 29% 30.12 1016.4
06 11:52 N 18 G 28 10.00 Partly Cloudy SCT050 60.1 33.1 60.1 39.9 36% 30.11 1016.1
06 10:52 N 17 G 24 10.00 Mostly Cloudy BKN033 BKN040 55.9 39.9 55% 30.1 1015.5
06 09:52 N 10 10.00 Mostly Cloudy SCT036 BKN065 54 39.9 59% 30.08 1014.9
06 08:52 N 6 10.00 Overcast OVC055 48 42.1 80% 46 30.06 1014.5
06 07:52 Calm 10.00 Mostly Cloudy BKN065 44.1 37.9 79% 30.04 1013.9
06 06:52 Vrbl 5 10.00 Fair CLR 42.1 39 89% 40 30 1012.7
06 05:52 W 10 10.00 Fair CLR 43 39 51.1 42.1 86% 38 29.96 1010.8 0.03
06 04:52 SE 6 10.00 Mostly Cloudy FEW060 BKN080 44.1 39.9 85% 41 29.96 1010.6 0.03
06 03:52 N 14 7.00 Rain FEW041 BKN060 OVC070 48 32 54% 43 29.97 1010.9
06 02:52 S 8 10.00 A Few Clouds FEW120 45 28 52% 41 29.92 1009.3
06 01:52 SW 5 10.00 Fair CLR 44.1 27 51% 42 29.91 1009.0
06 00:52 Calm 10.00 Fair CLR 46.9 28.9 50% 29.9 1008.7
05 23:52 SE 3 10.00 Fair CLR 51.1 30 66 50 45% 29.88 1007.9
05 22:52 NW 8 10.00 Partly Cloudy SCT100 55.9 30 37% 29.87 1007.4
05 21:52 N 12 10.00 Overcast BKN090 OVC110 60.1 30 32% 29.86 1006.7
05 20:52 Calm 10.00 Overcast OVC095 61 23 23% 29.82 1005.9
05 19:52 SW 10 10.00 Overcast OVC095 62.1 24.1 23% 29.8 1005.7
05 18:52 NW 9 10.00 Overcast OVC100 64 21.9 20% 29.79 1005.5
05 17:52 N 20 G 26 10.00 Overcast OVC100 66 21.9 69.1 60.1 19% 29.77 1004.5
05 16:52 N 8 10.00 Partly Cloudy SCT095 SCT120 66.9 21 17% 29.77 1004.0
05 15:52 S 12 G 30 10.00 A Few Clouds FEW095 68 23 18% 29.78 1004.5
05 14:52 S 9 G 16 10.00 Fair CLR 66.9 21.9 18% 29.8 1005.1
05 13:52 S 9 G 16 10.00 Fair CLR 64.9 23 20% 29.82 1005.7
05 12:52 S 12 G 22 10.00 Fair CLR 62.1 24.1 23% 29.84 1007.1
05 11:52 S 21 G 28 10.00 Fair and Breezy CLR 61 26.1 61 39 26% 29.86 1007.5
05 10:52 S 18 10.00 Fair CLR 57.9 26.1 29% 29.86 1007.4
05 09:52 S 22 G 28 10.00 Fair and Breezy CLR 55.9 28 34% 29.86 1007.0
05 08:52 S 21 G 26 10.00 Fair and Breezy CLR 51.1 28 41% 29.86 1007.2
05 07:52 S 12 10.00 Fair CLR 45 25 46% 40 29.86 1007.4
05 06:52 SW 12 10.00 Fair CLR 39 23 53% 32 29.85 1007.3
05 05:52 SW 14 10.00 Fair CLR 39 23 46.9 39 53% 32 29.84 1006.9
05 04:52 S 13 10.00 Fair CLR 42.1 24.1 49% 36 29.84 1006.4
Date Time (mdt) Wind (mph) Vis. (mi.) Weather Sky Cond. Air Dwpt Max. Min. Relative Humidity Wind Chill (°F) Heat Index (°F) altimeter (in) sea level (mb) 1 hr 3 hr 6 hr
6 hour
Temperature (ºF) Pressure Precipitation (in)